When you browse on this site, cookies collect data to enhance your experience and personalize the content and advertising you see.
Visit our Privacy Policy to learn more. By continuing to use the site, you agree to this use of cookies and data.
  • In Romania
  • List of Countries
  • For 7 days
  • Water Temperature
  • Satellite Maps
  • Weather Map
  • Weather Widgets
  • user-avatar
    Login

    Hourly Weather Arroyo

    Today, 18 April, Thursday

    Time Temperature Precipitation Wind Pressure Humidity
    00:00 +8°C° 0 mm 1 mps 725 mmHg 97%
    01:00 +8°C° 0 mm 1 mps 725 mmHg 97%
    02:00 +8°C° 0 mm 1 mps 725 mmHg 97%
    03:00 +8°C° 0 mm 1 mps 725 mmHg 96%
    04:00 +8°C° 0 mm 1 mps 725 mmHg 96%
    05:00 +9°C° 0 mm 1 mps 725 mmHg 96%
    06:00 +9°C° 0 mm 1 mps 725 mmHg 95%
    07:00 +10°C° 0 mm 1 mps 725 mmHg 90%
    08:00 +12°C° 0 mm 1 mps 725 mmHg 85%
    09:00 +13°C° 0 mm 1 mps 725 mmHg 79%
    10:00 +14°C° 0.3 mm 1 mps 725 mmHg 74%
    11:00 +16°C° 0.3 mm 1 mps 725 mmHg 69%
    12:00 +18°C° 0.3 mm 1 mps 725 mmHg 64%
    13:00 +18°C° 0.6 mm 1 mps 725 mmHg 61%
    14:00 +19°C° 0.6 mm 1 mps 724 mmHg 59%
    15:00 +20°C° 0.6 mm 1 mps 724 mmHg 56%
    16:00 +18°C° 1.7 mm 1 mps 724 mmHg 63%
    17:00 +16°C° 1.7 mm 1 mps 724 mmHg 70%
    18:00 +15°C° 1.7 mm 1 mps 724 mmHg 77%
    19:00 +14°C° 0.1 mm 1 mps 724 mmHg 79%
    20:00 +13°C° 0.1 mm 1 mps 725 mmHg 81%
    21:00 +12°C° 0.1 mm 1 mps 725 mmHg 83%
    22:00 +11°C° 0 mm 1 mps 725 mmHg 84%
    23:00 +11°C° 0 mm 1 mps 725 mmHg 85%

    Tomorrow, 19 April, Friday

    Time Temperature Precipitation Wind Pressure Humidity
    00:00 +10°C° 0 mm 1 mps 725 mmHg 87%
    01:00 +10°C° 0 mm 1 mps 725 mmHg 88%
    02:00 +9°C° 0 mm 0 mps 724 mmHg 89%
    03:00 +9°C° 0 mm 0 mps 724 mmHg 90%
    04:00 +8°C° 0 mm 0 mps 724 mmHg 91%
    05:00 +8°C° 0 mm 0 mps 725 mmHg 91%
    06:00 +9°C° 0 mm 1 mps 725 mmHg 92%
    07:00 +10°C° 0.2 mm 1 mps 725 mmHg 91%
    08:00 +10°C° 0.2 mm 2 mps 725 mmHg 90%
    09:00 +12°C° 0.2 mm 2 mps 726 mmHg 88%
    10:00 +13°C° 0.3 mm 2 mps 726 mmHg 84%
    11:00 +14°C° 0.3 mm 2 mps 726 mmHg 79%
    12:00 +15°C° 0.3 mm 1 mps 726 mmHg 74%
    13:00 +16°C° 0.4 mm 2 mps 726 mmHg 70%
    14:00 +17°C° 0.4 mm 2 mps 725 mmHg 65%
    15:00 +18°C° 0.4 mm 2 mps 725 mmHg 61%
    16:00 +17°C° 0.3 mm 2 mps 725 mmHg 64%
    17:00 +17°C° 0.3 mm 2 mps 725 mmHg 67%
    18:00 +16°C° 0.3 mm 2 mps 725 mmHg 70%
    19:00 +15°C° 0 mm 2 mps 726 mmHg 73%
    20:00 +13°C° 0 mm 2 mps 726 mmHg 76%
    21:00 +12°C° 0 mm 2 mps 726 mmHg 79%
    22:00 +10°C° 0 mm 2 mps 727 mmHg 80%
    23:00 +10°C° 0 mm 2 mps 727 mmHg 81%

    Day after tomorrow, 20 April, Saturday

    Time Temperature Precipitation Wind Pressure Humidity
    00:00 +9°C° 0 mm 2 mps 727 mmHg 82%
    01:00 +9°C° 0 mm 2 mps 727 mmHg 83%
    02:00 +9°C° 0 mm 3 mps 727 mmHg 83%
    03:00 +9°C° 0 mm 3 mps 726 mmHg 84%
    04:00 +9°C° 0 mm 3 mps 726 mmHg 85%
    05:00 +9°C° 0 mm 3 mps 727 mmHg 86%
    06:00 +9°C° 0 mm 3 mps 727 mmHg 87%
    07:00 +11°C° 0 mm 4 mps 727 mmHg 79%
    08:00 +13°C° 0 mm 5 mps 727 mmHg 70%
    09:00 +15°C° 0 mm 6 mps 727 mmHg 62%
    10:00 +16°C° 0 mm 7 mps 727 mmHg 57%
    11:00 +18°C° 0 mm 7 mps 727 mmHg 52%
    12:00 +20°C° 0 mm 8 mps 727 mmHg 47%
    13:00 +21°C° 0 mm 7 mps 727 mmHg 45%
    14:00 +21°C° 0 mm 7 mps 727 mmHg 44%
    15:00 +22°C° 0 mm 6 mps 727 mmHg 42%
    16:00 +21°C° 0 mm 5 mps 727 mmHg 45%
    17:00 +20°C° 0 mm 4 mps 727 mmHg 49%
    18:00 +20°C° 0 mm 4 mps 726 mmHg 52%
    19:00 +18°C° 0 mm 3 mps 727 mmHg 57%
    20:00 +16°C° 0 mm 3 mps 727 mmHg 61%
    21:00 +13°C° 0 mm 3 mps 727 mmHg 66%
    22:00 +12°C° 0 mm 3 mps 727 mmHg 67%
    23:00 +12°C° 0 mm 3 mps 727 mmHg 69%

    21 April, Sunday

    Time Temperature Precipitation Wind Pressure Humidity
    00:00 +11°C° 0 mm 3 mps 727 mmHg 70%
    01:00 +10°C° 0 mm 3 mps 726 mmHg 72%
    02:00 +10°C° 0 mm 3 mps 726 mmHg 73%
    03:00 +9°C° 0 mm 3 mps 726 mmHg 75%
    04:00 +9°C° 0 mm 3 mps 726 mmHg 77%
    05:00 +9°C° 0 mm 2 mps 725 mmHg 78%
    06:00 +8°C° 0 mm 2 mps 725 mmHg 80%
    07:00 +10°C° 0 mm 3 mps 725 mmHg 71%
    08:00 +13°C° 0 mm 3 mps 726 mmHg 63%
    09:00 +15°C° 0 mm 4 mps 726 mmHg 54%
    10:00 +17°C° 0 mm 4 mps 725 mmHg 51%
    11:00 +19°C° 0 mm 4 mps 725 mmHg 47%
    12:00 +20°C° 0 mm 4 mps 725 mmHg 43%
    13:00 +20°C° 0 mm 4 mps 724 mmHg 42%
    14:00 +21°C° 0 mm 3 mps 724 mmHg 41%
    15:00 +21°C° 0 mm 3 mps 723 mmHg 40%
    16:00 +21°C° 0 mm 3 mps 723 mmHg 45%
    17:00 +20°C° 0 mm 2 mps 723 mmHg 49%
    18:00 +19°C° 0 mm 2 mps 723 mmHg 53%
    19:00 +18°C° 0 mm 2 mps 723 mmHg 56%
    20:00 +16°C° 0 mm 3 mps 723 mmHg 59%
    21:00 +14°C° 0 mm 3 mps 723 mmHg 61%
    22:00 +13°C° 0 mm 3 mps 723 mmHg 66%
    23:00 +12°C° 0 mm 2 mps 723 mmHg 70%

    22 April, Monday

    Time Temperature Precipitation Wind Pressure Humidity
    00:00 +10°C° 0 mm 2 mps 723 mmHg 75%
    01:00 +10°C° 0 mm 2 mps 723 mmHg 75%
    02:00 +11°C° 0 mm 1 mps 723 mmHg 76%
    03:00 +11°C° 0 mm 1 mps 722 mmHg 76%
    04:00 +10°C° 0 mm 1 mps 722 mmHg 79%
    05:00 +10°C° 0 mm 1 mps 722 mmHg 82%
    06:00 +9°C° 0 mm 1 mps 722 mmHg 84%
    07:00 +12°C° 0 mm 1 mps 722 mmHg 75%
    08:00 +14°C° 0 mm 1 mps 722 mmHg 66%
    09:00 +18°C° 0 mm 1 mps 722 mmHg 57%
    10:00 +19°C° 0 mm 1 mps 722 mmHg 53%
    11:00 +21°C° 0 mm 1 mps 721 mmHg 49%
    12:00 +21°C° 0 mm 0 mps 721 mmHg 45%
    13:00 +23°C° 0 mm 1 mps 720 mmHg 45%
    14:00 +22°C° 0 mm 1 mps 720 mmHg 45%
    15:00 +21°C° 0 mm 2 mps 719 mmHg 44%
    16:00 +21°C° 0 mm 2 mps 719 mmHg 48%
    17:00 +20°C° 0 mm 2 mps 719 mmHg 52%
    18:00 +20°C° 0 mm 2 mps 719 mmHg 56%
    19:00 +18°C° 0.1 mm 2 mps 719 mmHg 64%
    20:00 +16°C° 0.1 mm 2 mps 719 mmHg 71%
    21:00 +14°C° 0.1 mm 2 mps 719 mmHg 79%
    22:00 +13°C° 0.1 mm 1 mps 719 mmHg 81%
    23:00 +13°C° 0.1 mm 1 mps 719 mmHg 84%

    23 April, Tuesday

    Time Temperature Precipitation Wind Pressure Humidity
    00:00 +12°C° 0.1 mm 1 mps 719 mmHg 87%
    01:00 +12°C° 0 mm 1 mps 719 mmHg 89%
    02:00 +11°C° 0 mm 1 mps 718 mmHg 91%
    03:00 +11°C° 0 mm 1 mps 718 mmHg 93%
    04:00 +10°C° 0 mm 1 mps 718 mmHg 94%
    05:00 +10°C° 0 mm 1 mps 718 mmHg 95%
    06:00 +10°C° 0 mm 1 mps 718 mmHg 96%
    07:00 +12°C° 0 mm 2 mps 718 mmHg 87%
    08:00 +13°C° 0 mm 3 mps 719 mmHg 78%
    09:00 +16°C° 0 mm 3 mps 719 mmHg 69%
    10:00 +17°C° 0 mm 4 mps 719 mmHg 62%
    11:00 +19°C° 0 mm 5 mps 719 mmHg 54%
    12:00 +20°C° 0 mm 5 mps 719 mmHg 47%
    13:00 +21°C° 0.2 mm 5 mps 719 mmHg 48%
    14:00 +21°C° 0.2 mm 6 mps 718 mmHg 50%
    15:00 +21°C° 0.2 mm 6 mps 718 mmHg 52%
    16:00 +20°C° 0.5 mm 5 mps 718 mmHg 58%
    17:00 +19°C° 0.5 mm 4 mps 718 mmHg 64%
    18:00 +18°C° 0.5 mm 3 mps 718 mmHg 70%
    19:00 +16°C° 0.1 mm 3 mps 719 mmHg 76%
    20:00 +14°C° 0.1 mm 2 mps 720 mmHg 81%
    21:00 +13°C° 0.1 mm 2 mps 720 mmHg 87%
    22:00 +12°C° 0 mm 2 mps 720 mmHg 89%
    23:00 +12°C° 0 mm 2 mps 720 mmHg 91%
    Show more